W6UA-13 Weather Reports


time (UTC)temp
F
wind
direction
speed
knots
gust
knots
rain 1hr
in
rain 24hr
in
rain mn
in
humidity
%
barometer
mb
20260506154938 62 240 0.9 1.7 0.00 0.00 0.00 72 1018.5
20260506153438 60 262 0.9 1.7 0.00 0.00 0.00 75 1018.5
20260506151938 58 325 0.0 1.7 0.00 0.00 0.00 79 1018.5
20260506150438 56 274 0.0 1.7 0.00 0.00 0.00 82 1018.5
20260506144938 55 329 0.9 2.6 0.00 0.00 0.00 85 1018.5
20260506143438 52 342 0.0 0.0 0.00 0.00 0.00 87 1018.4
20260506141939 50 342 0.0 0.0 0.00 0.00 0.00 89 1018.1
20260506140438 49 333 0.0 0.0 0.00 0.00 0.00 89 1018.0
20260506134938 48 359 0.0 0.0 0.00 0.00 0.00 89 1018.0
20260506133438 47 108 0.0 0.0 0.00 0.00 0.00 89 1018.0
20260506131938 47 272 0.0 0.0 0.00 0.00 0.00 89 1017.7
20260506130438 47 0 0.0 0.0 0.00 0.00 0.00 89 1017.5
20260506124938 46 329 1.7 1.7 0.00 0.00 0.00 88 1017.5
20260506123438 47 359 0.9 1.7 0.00 0.00 0.00 88 1017.4
20260506121938 47 356 0.9 1.7 0.00 0.00 0.00 88 1017.5
20260506120438 47 343 0.9 0.9 0.00 0.00 0.00 88 1017.5
20260506114938 47 313 0.9 1.7 0.00 0.00 0.00 88 1017.5
20260506113438 47 343 0.0 1.7 0.00 0.00 0.00 88 1017.7
20260506111938 48 330 0.9 1.7 0.00 0.00 0.00 87 1017.8
20260506110438 48 351 0.0 1.7 0.00 0.00 0.00 88 1017.6
20260506104938 48 344 0.9 0.9 0.00 0.00 0.00 87 1017.6
20260506103438 49 1 0.0 0.9 0.00 0.00 0.00 87 1017.6
20260506101938 49 32 0.0 1.7 0.00 0.00 0.00 87 1017.5
20260506100439 49 352 0.0 1.7 0.00 0.00 0.00 87 1017.5
20260506094939 49 3 0.9 1.7 0.00 0.00 0.00 87 1017.5
20260506093439 49 49 0.0 1.7 0.00 0.00 0.00 87 1017.6
20260506091939 49 316 0.0 1.7 0.00 0.00 0.00 87 1017.6
20260506090439 50 334 0.9 2.6 0.00 0.00 0.00 87 1017.9
20260506084939 50 354 0.0 0.0 0.00 0.00 0.00 86 1018.0
20260506083439 50 340 0.0 0.0 0.00 0.00 0.00 86 1018.0
20260506081939 51 338 0.0 0.0 0.00 0.00 0.00 86 1018.1
20260506080439 51 12 0.0 0.0 0.00 0.00 0.00 86 1018.1
20260506073439 52 345 0.0 1.7 0.00 0.00 0.00 85 1018.0
20260506071939 53 359 0.9 1.7 0.00 0.00 0.00 85 1018.0
20260506070439 53 1 0.9 1.7 0.00 0.00 0.00 84 1017.8
20260506061939 54 335 0.9 2.6 0.00 0.00 0.00 84 1017.6
20260506060439 54 304 0.0 0.0 0.00 0.00 0.00 84 1017.5
20260506050439 55 326 0.0 0.0 0.00 0.00 0.00 82 1017.2
20260506044939 55 310 0.9 0.0 0.00 0.00 0.00 82 1017.0
20260506043439 55 329 0.9 2.6 0.00 0.00 0.00 81 1017.0
20260506041939 55 304 0.9 2.6 0.00 0.00 0.00 80 1016.9
20260506040439 56 302 0.9 3.5 0.00 0.00 0.00 80 1016.8
20260506034939 56 313 1.7 5.2 0.00 0.00 0.00 79 1016.5
20260506033439 56 291 0.9 6.1 0.00 0.00 0.00 78 1016.4
20260506031939 57 300 1.7 2.6 0.00 0.00 0.00 77 1016.2
20260506030439 57 283 3.5 9.6 0.00 0.00 0.00 77 1015.9
20260506024939 57 307 3.5 7.8 0.00 0.00 0.00 75 1015.9
20260506023439 58 266 3.5 8.7 0.00 0.00 0.00 73 1015.9
20260506021939 59 333 3.5 5.2 0.00 0.00 0.00 71 1015.9
20260506020439 60 330 5.2 12.2 0.00 0.00 0.00 68 1015.9
20260506014939 61 5 4.3 9.6 0.00 0.00 0.00 64 1015.9
20260506013439 63 313 3.5 7.8 0.00 0.00 0.00 61 1016.0
20260506012449 63 309 3.5 6.1 0.00 0.00 0.00 62 1016.2
20260506012413 63 309 3.5 6.1 0.00 0.00 0.00 62 1016.2
20260506011939 63 309 3.5 6.1 0.00 0.00 0.00 62 1016.2
20260506010439 64 313 4.3 12.2 0.00 0.00 0.00 61 1016.3
20260506004939 64 347 4.3 10.4 0.00 0.00 0.00 60 1016.3
20260506003439 65 274 4.3 9.6 0.00 0.00 0.00 57 1015.9
20260506001939 65 290 4.3 7.8 0.00 0.00 0.00 59 1015.8
20260506000439 66 208 2.6 6.1 0.00 0.00 0.00 58 1015.7
20260505234939 66 304 2.6 6.1 0.00 0.00 0.00 58 1015.5
20260505233439 66 280 3.5 6.1 0.00 0.00 0.00 61 1015.6
20260505231939 63 258 5.2 10.4 0.00 0.00 0.00 66 1015.6
20260505230439 63 269 6.1 13.0 0.00 0.00 0.00 66 1015.7
20260505224939 65 219 4.3 11.3 0.00 0.00 0.00 62 1015.9
20260505223439 66 189 4.3 9.6 0.00 0.00 0.00 61 1015.9
20260505221939 66 205 4.3 8.7 0.00 0.00 0.00 60 1015.9
20260505220439 67 210 2.6 6.1 0.00 0.00 0.00 56 1015.9
20260505214939 65 341 2.6 10.4 0.00 0.00 0.00 57 1016.0
20260505213439 63 240 6.1 11.3 0.00 0.00 0.00 65 1016.2
20260505211939 62 240 6.1 12.2 0.00 0.00 0.00 64 1016.1
20260505210439 61 253 7.8 14.8 0.00 0.00 0.00 66 1016.3
20260505204940 62 255 7.0 12.2 0.00 0.00 0.00 64 1016.3
20260505203440 64 234 6.1 15.6 0.00 0.00 0.00 59 1016.2
20260505201940 62 214 7.0 13.9 0.00 0.00 0.00 63 1016.2
20260505200440 62 246 5.2 13.0 0.00 0.00 0.00 64 1016.3
20260505194940 62 217 5.2 15.6 0.00 0.00 0.00 63 1016.3
20260505193440 62 250 7.8 15.6 0.00 0.00 0.00 64 1016.3
20260505191940 64 285 5.2 9.6 0.00 0.00 0.00 61 1016.3
20260505190440 65 186 4.3 13.0 0.00 0.00 0.00 61 1016.3
20260505184940 64 143 4.3 10.4 0.00 0.00 0.00 64 1016.0
20260505183440 63 209 4.3 11.3 0.00 0.00 0.00 64 1016.2
20260505181940 63 179 3.5 7.8 0.00 0.00 0.00 65 1016.0
20260505180440 63 180 3.5 9.6 0.00 0.00 0.00 66 1015.9
20260505174940 62 170 3.5 8.7 0.00 0.00 0.00 66 1015.9
20260505173440 63 214 3.5 8.7 0.00 0.00 0.00 66 1015.7
20260505171940 63 179 2.6 7.8 0.00 0.00 0.00 66 1015.4
20260505170440 62 216 1.7 8.7 0.00 0.00 0.00 65 1015.5
20260505164940 61 148 2.6 3.5 0.00 0.00 0.00 65 1015.6
20260505163440 62 200 0.9 4.3 0.00 0.00 0.00 65 1015.4
20260505161940 61 242 0.9 5.2 0.00 0.00 0.00 67 1015.4
20260505160440 60 323 0.9 1.7 0.00 0.00 0.00 70 1015.3